Showing default

YAOGAN-40 02C, 63920

Orbit data source: Space-Track

YAOGAN-40 02C, 63920 is a payload satellite owned by CAST (CN) in LEO that was launched on Sun, 11 May 2025 UTC via a CHANG ZHENG 6A launch vehicle from the Taiyaun Space Center, China (TSC). Payload-class satellites include a variety of spacecraft equipped with specific instruments for various scientific and technological missions. These include communications satellites like Starlink; space stations such as the ISS; scientific satellites like the Hubble; Earth observation satellites from companies like Planet Labs, Umbra, and HawkEye 360; GPS; miniature CubeSats for education and research; and military/defense satellites.

Loading next visibility...
Identifier
63920, 2025-096C
Orbit
LEO
Country
Flag of CNCN / PRC
Related business
Manufacturer
DFH
Mission
Operational Defense Sigint
Bus & Motor
YG40, Unknown motor
Mass
~500 kg wet, ~500 kg dry
Launch date (UTC)
2025-05-11 (1 year ago)
Launch vehicle
CHANG ZHENG 6A
Launch site
Taiyaun Space Center, China (TSC)
Object type
Payload
Rocket body
Debris
Shape & HBR
Box + 2 Pan, 2.0 m
Radar Cross Section
5.141 m², Large (>1 m²)

Expand to show TLE details & history
Last TLE update: 12 hours ago

TLE from 12 hours ago
0 YAOGAN-40 02C
1 63920U 25096C   26171.46901277  .00000134  00000-0  62328-4 0  9998
2 63920  85.9952 185.7457 0002482  87.3122 272.8346 14.12448779 75872
Epoch: 2026-06-20T11:15Z
TLE epoch observation values (Epoch: 2026-06-20T11:15:22.703Z)
Latitude
0.00007°
Longitude
108.21792°
Altitude
853.93 km
Speed
7.426 km/s
True Right ascension
12h 22m 58s
True Declination
0° 00' 00"
Sunlit
Object was in daylight at epoch
Visualization orbit readout
Latitude
Unknown
Longitude
Unknown
Altitude
Unknown
Speed
Unknown
Apparent Right ascension
Unknown
Apparent Declination
Unknown
Sunlit
N/A
Visualization observer readout
Local Sidereal Time
10:20:18
Azimuth
Unknown
Elevation
Unknown
Doppler factor
Unknown
Orbital elements
Apogee altitude
849.801 km
Perigee altitude
846.214 km
Semi-major axis
7,226.145 km
Eccentricity
0.00025
Inclination
85.9952°
RAAN
185.7457°
Arg. of periapsis
87.3122°
True anomaly
272.80619°
Mean anomaly
272.8346°
Eccentric anomaly
272.8204°
Mean motion
3.53332 °/min
Orbital period
101.89 mins
BSTAR
0.000062328
Loading maneuver chart data...
Computing Atmospheric mass density...
Loading historical data...
Loading historical data...
Loading historical data...
Loading historical data...
Loading historical data...
Loading historical data...
Loading historical data...
Other satellites on launch #96 in the year 2025 (2025-05-11 UTC)

Documentation

Showing up to 5 results
|